Year,Month,Day,Hour,Minute,Value (Times are PST for insolation in W/m^2)
2022,08,14,00,00,0.00
2022,08,14,00,01,0.00
2022,08,14,00,02,0.00
2022,08,14,00,03,0.00
2022,08,14,00,04,0.00
2022,08,14,00,05,0.00
2022,08,14,00,06,0.00
2022,08,14,00,07,0.00
2022,08,14,00,08,0.00
2022,08,14,00,09,0.00
2022,08,14,00,10,0.00
2022,08,14,00,11,0.00
2022,08,14,00,12,0.00
2022,08,14,00,13,0.00
2022,08,14,00,14,0.00
2022,08,14,00,15,0.00
2022,08,14,00,16,0.00
2022,08,14,00,17,0.00
2022,08,14,00,18,0.00
2022,08,14,00,19,0.00
2022,08,14,00,20,0.00
2022,08,14,00,21,0.00
2022,08,14,00,22,0.00
2022,08,14,00,23,0.00
2022,08,14,00,24,0.00
2022,08,14,00,25,0.00
2022,08,14,00,26,0.00
2022,08,14,00,27,0.00
2022,08,14,00,28,0.00
2022,08,14,00,29,0.00
2022,08,14,00,30,0.00
2022,08,14,00,31,0.00
2022,08,14,00,32,0.00
2022,08,14,00,33,0.00
2022,08,14,00,34,0.00
2022,08,14,00,35,0.00
2022,08,14,00,36,0.00
2022,08,14,00,37,0.00
2022,08,14,00,38,0.00
2022,08,14,00,39,0.00
2022,08,14,00,40,0.00
2022,08,14,00,41,0.00
2022,08,14,00,42,0.00
2022,08,14,00,43,0.00
2022,08,14,00,44,0.00
2022,08,14,00,45,0.00
2022,08,14,00,46,0.00
2022,08,14,00,47,0.00
2022,08,14,00,48,0.00
2022,08,14,00,49,0.00
2022,08,14,00,50,0.00
2022,08,14,00,51,0.00
2022,08,14,00,52,0.00
2022,08,14,00,53,0.00
2022,08,14,00,54,0.00
2022,08,14,00,55,0.00
2022,08,14,00,56,0.00
2022,08,14,00,57,0.00
2022,08,14,00,58,0.00
2022,08,14,00,59,0.00
2022,08,14,01,00,0.00
2022,08,14,01,01,0.00
2022,08,14,01,02,0.00
2022,08,14,01,03,0.00
2022,08,14,01,04,0.00
2022,08,14,01,05,0.00
2022,08,14,01,06,0.00
2022,08,14,01,07,0.00
2022,08,14,01,08,0.00
2022,08,14,01,09,0.00
2022,08,14,01,10,0.00
2022,08,14,01,11,0.00
2022,08,14,01,12,0.00
2022,08,14,01,13,0.00
2022,08,14,01,14,0.00
2022,08,14,01,15,0.00
2022,08,14,01,16,0.00
2022,08,14,01,17,0.00
2022,08,14,01,18,0.00
2022,08,14,01,19,0.00
2022,08,14,01,20,0.00
2022,08,14,01,21,0.00
2022,08,14,01,22,0.00
2022,08,14,01,23,0.00
2022,08,14,01,24,0.00
2022,08,14,01,25,0.00
2022,08,14,01,26,0.00
2022,08,14,01,27,0.00
2022,08,14,01,28,0.00
2022,08,14,01,29,0.00
2022,08,14,01,30,0.00
2022,08,14,01,31,0.00
2022,08,14,01,32,0.00
2022,08,14,01,33,0.00
2022,08,14,01,34,0.00
2022,08,14,01,35,0.00
2022,08,14,01,36,0.00
2022,08,14,01,37,0.00
2022,08,14,01,38,0.00
2022,08,14,01,39,0.00
2022,08,14,01,40,0.00
2022,08,14,01,41,0.00
2022,08,14,01,42,0.00
2022,08,14,01,43,0.00
2022,08,14,01,44,0.00
2022,08,14,01,45,0.00
2022,08,14,01,46,0.00
2022,08,14,01,47,0.00
2022,08,14,01,48,0.00
2022,08,14,01,49,0.00
2022,08,14,01,50,0.00
2022,08,14,01,51,0.00
2022,08,14,01,52,0.00
2022,08,14,01,53,0.00
2022,08,14,01,54,0.00
2022,08,14,01,55,0.00
2022,08,14,01,56,0.00
2022,08,14,01,57,0.00
2022,08,14,01,58,0.00
2022,08,14,01,59,0.00
2022,08,14,02,00,0.00
2022,08,14,02,01,0.00
2022,08,14,02,02,0.00
2022,08,14,02,03,0.00
2022,08,14,02,04,0.00
2022,08,14,02,05,0.00
2022,08,14,02,06,0.00
2022,08,14,02,07,0.00
2022,08,14,02,08,0.00
2022,08,14,02,09,0.00
2022,08,14,02,10,0.00
2022,08,14,02,11,0.00
2022,08,14,02,12,0.00
2022,08,14,02,13,0.00
2022,08,14,02,14,0.00
2022,08,14,02,15,0.00
2022,08,14,02,16,0.00
2022,08,14,02,17,0.00
2022,08,14,02,18,0.00
2022,08,14,02,19,0.00
2022,08,14,02,20,0.00
2022,08,14,02,21,0.00
2022,08,14,02,22,0.00
2022,08,14,02,23,0.00
2022,08,14,02,24,0.00
2022,08,14,02,25,0.00
2022,08,14,02,26,0.00
2022,08,14,02,27,0.00
2022,08,14,02,28,0.00
2022,08,14,02,29,0.00
2022,08,14,02,30,0.00
2022,08,14,02,31,0.00
2022,08,14,02,32,0.00
2022,08,14,02,33,0.00
2022,08,14,02,34,0.00
2022,08,14,02,35,0.00
2022,08,14,02,36,0.00
2022,08,14,02,37,0.00
2022,08,14,02,38,0.00
2022,08,14,02,39,0.00
2022,08,14,02,40,0.00
2022,08,14,02,41,0.00
2022,08,14,02,42,0.00
2022,08,14,02,43,0.00
2022,08,14,02,44,0.00
2022,08,14,02,45,0.00
2022,08,14,02,46,0.00
2022,08,14,02,47,0.00
2022,08,14,02,48,0.00
2022,08,14,02,49,0.00
2022,08,14,02,50,0.00
2022,08,14,02,51,0.00
2022,08,14,02,52,0.00
2022,08,14,02,53,0.00
2022,08,14,02,54,0.00
2022,08,14,02,55,0.00
2022,08,14,02,56,0.00
2022,08,14,02,57,0.00
2022,08,14,02,58,0.00
2022,08,14,02,59,0.00
2022,08,14,03,00,0.00
2022,08,14,03,01,0.00
2022,08,14,03,02,0.00
2022,08,14,03,03,0.00
2022,08,14,03,04,0.00
2022,08,14,03,05,0.00
2022,08,14,03,06,0.00
2022,08,14,03,07,0.00
2022,08,14,03,08,0.00
2022,08,14,03,09,0.00
2022,08,14,03,10,0.00
2022,08,14,03,11,0.00
2022,08,14,03,12,0.00
2022,08,14,03,13,0.00
2022,08,14,03,14,0.00
2022,08,14,03,15,0.00
2022,08,14,03,16,0.00
2022,08,14,03,17,0.00
2022,08,14,03,18,0.00
2022,08,14,03,19,0.00
2022,08,14,03,20,0.00
2022,08,14,03,21,0.00
2022,08,14,03,22,0.00
2022,08,14,03,23,0.00
2022,08,14,03,24,0.00
2022,08,14,03,25,0.00
2022,08,14,03,26,0.00
2022,08,14,03,27,0.00
2022,08,14,03,28,0.00
2022,08,14,03,29,0.00
2022,08,14,03,30,0.00
2022,08,14,03,31,0.00
2022,08,14,03,32,0.00
2022,08,14,03,33,0.00
2022,08,14,03,34,0.00
2022,08,14,03,35,0.00
2022,08,14,03,36,0.00
2022,08,14,03,37,0.00
2022,08,14,03,38,0.00
2022,08,14,03,39,0.00
2022,08,14,03,40,0.00
2022,08,14,03,41,0.00
2022,08,14,03,42,0.00
2022,08,14,03,43,0.00
2022,08,14,03,44,0.00
2022,08,14,03,45,0.00
2022,08,14,03,46,0.00
2022,08,14,03,47,0.00
2022,08,14,03,48,0.00
2022,08,14,03,49,0.00
2022,08,14,03,50,0.00
2022,08,14,03,51,0.00
2022,08,14,03,52,0.00
2022,08,14,03,53,0.00
2022,08,14,03,54,0.00
2022,08,14,03,55,0.00
2022,08,14,03,56,0.00
2022,08,14,03,57,0.00
2022,08,14,03,58,0.00
2022,08,14,03,59,0.00
2022,08,14,04,00,0.00
2022,08,14,04,01,0.00
2022,08,14,04,02,0.00
2022,08,14,04,03,0.00
2022,08,14,04,04,0.00
2022,08,14,04,05,0.00
2022,08,14,04,06,0.00
2022,08,14,04,07,0.00
2022,08,14,04,08,0.00
2022,08,14,04,09,0.00
2022,08,14,04,10,0.00
2022,08,14,04,11,0.00
2022,08,14,04,12,0.00
2022,08,14,04,13,0.00
2022,08,14,04,14,0.00
2022,08,14,04,15,0.00
2022,08,14,04,16,0.00
2022,08,14,04,17,0.00
2022,08,14,04,18,0.00
2022,08,14,04,19,0.00
2022,08,14,04,20,0.00
2022,08,14,04,21,0.00
2022,08,14,04,22,0.00
2022,08,14,04,23,0.00
2022,08,14,04,24,0.00
2022,08,14,04,25,0.00
2022,08,14,04,26,0.00
2022,08,14,04,27,0.00
2022,08,14,04,28,0.00
2022,08,14,04,29,0.00
2022,08,14,04,30,0.00
2022,08,14,04,31,0.00
2022,08,14,04,32,0.00
2022,08,14,04,33,0.00
2022,08,14,04,34,0.00
2022,08,14,04,35,0.00
2022,08,14,04,36,0.00
2022,08,14,04,37,0.00
2022,08,14,04,38,0.00
2022,08,14,04,39,0.00
2022,08,14,04,40,0.00
2022,08,14,04,41,0.00
2022,08,14,04,42,0.00
2022,08,14,04,43,0.00
2022,08,14,04,44,0.00
2022,08,14,04,45,0.00
2022,08,14,04,46,0.00
2022,08,14,04,47,0.00
2022,08,14,04,48,0.00
2022,08,14,04,49,0.00
2022,08,14,04,50,0.00
2022,08,14,04,51,0.00
2022,08,14,04,52,0.00
2022,08,14,04,53,0.00
2022,08,14,04,54,0.00
2022,08,14,04,55,0.00
2022,08,14,04,56,0.00
2022,08,14,04,57,0.00
2022,08,14,04,58,0.00
2022,08,14,04,59,0.00
2022,08,14,05,00,0.00
2022,08,14,05,01,0.00
2022,08,14,05,02,0.00
2022,08,14,05,03,0.00
2022,08,14,05,04,0.00
2022,08,14,05,05,0.00
2022,08,14,05,06,0.00
2022,08,14,05,07,0.00
2022,08,14,05,08,0.00
2022,08,14,05,09,0.00
2022,08,14,05,10,0.00
2022,08,14,05,11,0.00
2022,08,14,05,12,0.00
2022,08,14,05,13,0.00
2022,08,14,05,14,0.00
2022,08,14,05,15,0.00
2022,08,14,05,16,0.00
2022,08,14,05,17,0.00
2022,08,14,05,18,0.00
2022,08,14,05,19,0.00
2022,08,14,05,20,0.00
2022,08,14,05,21,0.00
2022,08,14,05,22,0.00
2022,08,14,05,23,0.00
2022,08,14,05,24,0.00
2022,08,14,05,25,0.00
2022,08,14,05,26,0.00
2022,08,14,05,27,0.00
2022,08,14,05,28,0.00
2022,08,14,05,29,0.00
2022,08,14,05,30,0.00
2022,08,14,05,31,0.00
2022,08,14,05,32,0.00
2022,08,14,05,33,0.00
2022,08,14,05,34,0.00
2022,08,14,05,35,0.00
2022,08,14,05,36,0.00
2022,08,14,05,37,0.00
2022,08,14,05,38,0.00
2022,08,14,05,39,0.00
2022,08,14,05,40,0.00
2022,08,14,05,41,0.00
2022,08,14,05,42,0.00
2022,08,14,05,43,0.00
2022,08,14,05,44,0.00
2022,08,14,05,45,0.00
2022,08,14,05,46,0.00
2022,08,14,05,47,0.00
2022,08,14,05,48,0.00
2022,08,14,05,49,0.00
2022,08,14,05,50,0.00
2022,08,14,05,51,0.00
2022,08,14,05,52,0.00
2022,08,14,05,53,0.00
2022,08,14,05,54,0.00
2022,08,14,05,55,0.00
2022,08,14,05,56,0.00
2022,08,14,05,57,0.00
2022,08,14,05,58,0.00
2022,08,14,05,59,0.00
2022,08,14,06,00,0.00
2022,08,14,06,01,0.00
2022,08,14,06,02,0.00
2022,08,14,06,03,0.00
2022,08,14,06,04,0.00
2022,08,14,06,05,3.70
2022,08,14,06,06,5.00
2022,08,14,06,07,5.00
2022,08,14,06,08,5.00
2022,08,14,06,09,5.00
2022,08,14,06,10,5.70
2022,08,14,06,11,7.00
2022,08,14,06,12,7.00
2022,08,14,06,13,7.00
2022,08,14,06,14,7.00
2022,08,14,06,15,7.00
2022,08,14,06,16,9.00
2022,08,14,06,17,9.00
2022,08,14,06,18,9.00
2022,08,14,06,19,9.00
2022,08,14,06,20,10.10
2022,08,14,06,21,11.00
2022,08,14,06,22,11.00
2022,08,14,06,23,11.00
2022,08,14,06,24,11.10
2022,08,14,06,25,12.00
2022,08,14,06,26,12.00
2022,08,14,06,27,12.00
2022,08,14,06,28,12.00
2022,08,14,06,29,13.10
2022,08,14,06,30,14.00
2022,08,14,06,31,14.00
2022,08,14,06,32,14.00
2022,08,14,06,33,16.00
2022,08,14,06,34,16.40
2022,08,14,06,35,18.30
2022,08,14,06,36,19.00
2022,08,14,06,37,20.00
2022,08,14,06,38,22.30
2022,08,14,06,39,24.50
2022,08,14,06,40,25.80
2022,08,14,06,41,27.90
2022,08,14,06,42,30.30
2022,08,14,06,43,32.30
2022,08,14,06,44,33.60
2022,08,14,06,45,35.90
2022,08,14,06,46,38.20
2022,08,14,06,47,39.60
2022,08,14,06,48,40.00
2022,08,14,06,49,40.00
2022,08,14,06,50,32.80
2022,08,14,06,51,27.40
2022,08,14,06,52,27.20
2022,08,14,06,53,37.20
2022,08,14,06,54,46.00
2022,08,14,06,55,43.70
2022,08,14,06,56,46.90
2022,08,14,06,57,59.90
2022,08,14,06,58,64.70
2022,08,14,06,59,67.20
2022,08,14,07,00,69.20
2022,08,14,07,01,70.60
2022,08,14,07,02,73.70
2022,08,14,07,03,76.60
2022,08,14,07,04,78.40
2022,08,14,07,05,80.50
2022,08,14,07,06,82.80
2022,08,14,07,07,84.20
2022,08,14,07,08,88.30
2022,08,14,07,09,90.30
2022,08,14,07,10,91.80
2022,08,14,07,11,94.90
2022,08,14,07,12,97.60
2022,08,14,07,13,99.40
2022,08,14,07,14,101.60
2022,08,14,07,15,104.70
2022,08,14,07,16,107.20
2022,08,14,07,17,109.40
2022,08,14,07,18,111.90
2022,08,14,07,19,114.70
2022,08,14,07,20,118.00
2022,08,14,07,21,120.60
2022,08,14,07,22,123.90
2022,08,14,07,23,126.70
2022,08,14,07,24,128.10
2022,08,14,07,25,132.30
2022,08,14,07,26,134.80
2022,08,14,07,27,137.00
2022,08,14,07,28,138.90
2022,08,14,07,29,142.60
2022,08,14,07,30,145.40
2022,08,14,07,31,148.20
2022,08,14,07,32,150.70
2022,08,14,07,33,154.90
2022,08,14,07,34,156.30
2022,08,14,07,35,158.50
2022,08,14,07,36,161.10
2022,08,14,07,37,164.00
2022,08,14,07,38,167.30
2022,08,14,07,39,170.40
2022,08,14,07,40,173.40
2022,08,14,07,41,175.90
2022,08,14,07,42,179.20
2022,08,14,07,43,181.50
2022,08,14,07,44,183.90
2022,08,14,07,45,186.80
2022,08,14,07,46,190.10
2022,08,14,07,47,192.60
2022,08,14,07,48,195.90
2022,08,14,07,49,198.70
2022,08,14,07,50,201.90
2022,08,14,07,51,204.40
2022,08,14,07,52,207.50
2022,08,14,07,53,210.50
2022,08,14,07,54,213.50
2022,08,14,07,55,216.30
2022,08,14,07,56,219.40
2022,08,14,07,57,222.40
2022,08,14,07,58,226.60
2022,08,14,07,59,229.10
2022,08,14,08,00,230.80
2022,08,14,08,01,234.60
2022,08,14,08,02,237.10
2022,08,14,08,03,240.00
2022,08,14,08,04,242.90
2022,08,14,08,05,245.50
2022,08,14,08,06,247.60
2022,08,14,08,07,249.90
2022,08,14,08,08,253.30
2022,08,14,08,09,255.60
2022,08,14,08,10,258.70
2022,08,14,08,11,260.80
2022,08,14,08,12,263.10
2022,08,14,08,13,266.10
2022,08,14,08,14,268.60
2022,08,14,08,15,271.50
2022,08,14,08,16,274.10
2022,08,14,08,17,276.60
2022,08,14,08,18,279.50
2022,08,14,08,19,281.80
2022,08,14,08,20,284.90
2022,08,14,08,21,288.80
2022,08,14,08,22,291.50
2022,08,14,08,23,293.60
2022,08,14,08,24,294.90
2022,08,14,08,25,299.30
2022,08,14,08,26,302.50
2022,08,14,08,27,304.60
2022,08,14,08,28,307.30
2022,08,14,08,29,310.10
2022,08,14,08,30,313.60
2022,08,14,08,31,315.80
2022,08,14,08,32,319.60
2022,08,14,08,33,321.90
2022,08,14,08,34,323.60
2022,08,14,08,35,327.50
2022,08,14,08,36,329.40
2022,08,14,08,37,331.90
2022,08,14,08,38,334.00
2022,08,14,08,39,336.80
2022,08,14,08,40,338.80
2022,08,14,08,41,342.60
2022,08,14,08,42,346.10
2022,08,14,08,43,348.80
2022,08,14,08,44,352.30
2022,08,14,08,45,354.70
2022,08,14,08,46,357.90
2022,08,14,08,47,359.60
2022,08,14,08,48,362.90
2022,08,14,08,49,365.70
2022,08,14,08,50,368.80
2022,08,14,08,51,369.40
2022,08,14,08,52,373.80
2022,08,14,08,53,376.70
2022,08,14,08,54,378.90
2022,08,14,08,55,381.70
2022,08,14,08,56,384.40
2022,08,14,08,57,387.20
2022,08,14,08,58,389.70
2022,08,14,08,59,394.10
2022,08,14,09,00,396.60
2022,08,14,09,01,399.60
2022,08,14,09,02,401.70
2022,08,14,09,03,404.40
2022,08,14,09,04,408.30
2022,08,14,09,05,410.70
2022,08,14,09,06,414.20
2022,08,14,09,07,416.90
2022,08,14,09,08,420.20
2022,08,14,09,09,422.50
2022,08,14,09,10,424.30
2022,08,14,09,11,427.70
2022,08,14,09,12,431.00
2022,08,14,09,13,432.90
2022,08,14,09,14,436.90
2022,08,14,09,15,438.90
2022,08,14,09,16,442.90
2022,08,14,09,17,445.50
2022,08,14,09,18,448.50
2022,08,14,09,19,451.60
2022,08,14,09,20,455.40
2022,08,14,09,21,458.20
2022,08,14,09,22,461.10
2022,08,14,09,23,463.60
2022,08,14,09,24,467.40
2022,08,14,09,25,471.40
2022,08,14,09,26,475.00
2022,08,14,09,27,476.50
2022,08,14,09,28,480.00
2022,08,14,09,29,466.30
2022,08,14,09,30,473.80
2022,08,14,09,31,489.20
2022,08,14,09,32,493.40
2022,08,14,09,33,496.30
2022,08,14,09,34,497.90
2022,08,14,09,35,450.60
2022,08,14,09,36,426.60
2022,08,14,09,37,432.90
2022,08,14,09,38,488.60
2022,08,14,09,39,501.00
2022,08,14,09,40,482.00
2022,08,14,09,41,463.70
2022,08,14,09,42,461.10
2022,08,14,09,43,514.90
2022,08,14,09,44,521.20
2022,08,14,09,45,524.60
2022,08,14,09,46,533.50
2022,08,14,09,47,536.30
2022,08,14,09,48,540.10
2022,08,14,09,49,541.00
2022,08,14,09,50,544.60
2022,08,14,09,51,548.90
2022,08,14,09,52,554.80
2022,08,14,09,53,554.80
2022,08,14,09,54,549.20
2022,08,14,09,55,553.00
2022,08,14,09,56,546.90
2022,08,14,09,57,505.80
2022,08,14,09,58,489.80
2022,08,14,09,59,479.80
2022,08,14,10,00,500.70
2022,08,14,10,01,489.30
2022,08,14,10,02,468.30
2022,08,14,10,03,505.10
2022,08,14,10,04,545.60
2022,08,14,10,05,558.80
2022,08,14,10,06,537.00
2022,08,14,10,07,537.10
2022,08,14,10,08,531.60
2022,08,14,10,09,573.20
2022,08,14,10,10,582.00
2022,08,14,10,11,582.80
2022,08,14,10,12,584.00
2022,08,14,10,13,584.60
2022,08,14,10,14,589.20
2022,08,14,10,15,589.30
2022,08,14,10,16,549.60
2022,08,14,10,17,590.00
2022,08,14,10,18,594.90
2022,08,14,10,19,590.20
2022,08,14,10,20,587.00
2022,08,14,10,21,574.30
2022,08,14,10,22,569.80
2022,08,14,10,23,596.60
2022,08,14,10,24,607.50
2022,08,14,10,25,609.30
2022,08,14,10,26,604.90
2022,08,14,10,27,616.20
2022,08,14,10,28,620.20
2022,08,14,10,29,623.10
2022,08,14,10,30,619.90
2022,08,14,10,31,572.90
2022,08,14,10,32,538.80
2022,08,14,10,33,587.90
2022,08,14,10,34,599.50
2022,08,14,10,35,599.80
2022,08,14,10,36,587.00
2022,08,14,10,37,605.30
2022,08,14,10,38,558.10
2022,08,14,10,39,579.60
2022,08,14,10,40,626.20
2022,08,14,10,41,634.40
2022,08,14,10,42,639.70
2022,08,14,10,43,640.30
2022,08,14,10,44,642.30
2022,08,14,10,45,643.70
2022,08,14,10,46,645.00
2022,08,14,10,47,646.20
2022,08,14,10,48,648.40
2022,08,14,10,49,649.80
2022,08,14,10,50,651.80
2022,08,14,10,51,654.20
2022,08,14,10,52,656.00
2022,08,14,10,53,656.90
2022,08,14,10,54,659.00
2022,08,14,10,55,660.10
2022,08,14,10,56,661.00
2022,08,14,10,57,662.50
2022,08,14,10,58,663.80
2022,08,14,10,59,666.00
2022,08,14,11,00,668.30
2022,08,14,11,01,670.20
2022,08,14,11,02,671.80
2022,08,14,11,03,673.90
2022,08,14,11,04,675.00
2022,08,14,11,05,676.30
2022,08,14,11,06,678.60
2022,08,14,11,07,679.90
2022,08,14,11,08,682.10
2022,08,14,11,09,684.40
2022,08,14,11,10,686.30
2022,08,14,11,11,687.70
2022,08,14,11,12,689.00
2022,08,14,11,13,690.20
2022,08,14,11,14,692.40
2022,08,14,11,15,693.80
2022,08,14,11,16,695.90
2022,08,14,11,17,696.20
2022,08,14,11,18,698.40
2022,08,14,11,19,700.30
2022,08,14,11,20,702.80
2022,08,14,11,21,703.90
2022,08,14,11,22,705.60
2022,08,14,11,23,707.00
2022,08,14,11,24,707.80
2022,08,14,11,25,710.00
2022,08,14,11,26,710.00
2022,08,14,11,27,711.30
2022,08,14,11,28,715.00
2022,08,14,11,29,715.90
2022,08,14,11,30,718.10
2022,08,14,11,31,720.30
2022,08,14,11,32,721.00
2022,08,14,11,33,721.90
2022,08,14,11,34,724.00
2022,08,14,11,35,724.40
2022,08,14,11,36,726.60
2022,08,14,11,37,728.40
2022,08,14,11,38,729.00
2022,08,14,11,39,730.30
2022,08,14,11,40,732.50
2022,08,14,11,41,734.70
2022,08,14,11,42,735.10
2022,08,14,11,43,737.00
2022,08,14,11,44,737.20
2022,08,14,11,45,738.00
2022,08,14,11,46,739.90
2022,08,14,11,47,742.00
2022,08,14,11,48,743.30
2022,08,14,11,49,744.00
2022,08,14,11,50,744.80
2022,08,14,11,51,746.90
2022,08,14,11,52,747.40
2022,08,14,11,53,749.00
2022,08,14,11,54,749.70
2022,08,14,11,55,751.00
2022,08,14,11,56,751.00
2022,08,14,11,57,751.70
2022,08,14,11,58,752.00
2022,08,14,11,59,753.80
2022,08,14,12,00,756.20
2022,08,14,12,01,758.00
2022,08,14,12,02,758.30
2022,08,14,12,03,759.00
2022,08,14,12,04,760.10
2022,08,14,12,05,759.70
2022,08,14,12,06,760.50
2022,08,14,12,07,761.00
2022,08,14,12,08,764.80
2022,08,14,12,09,765.20
2022,08,14,12,10,766.00
2022,08,14,12,11,766.70
2022,08,14,12,12,768.00
2022,08,14,12,13,769.20
2022,08,14,12,14,770.00
2022,08,14,12,15,770.00
2022,08,14,12,16,772.70
2022,08,14,12,17,773.00
2022,08,14,12,18,773.00
2022,08,14,12,19,773.60
2022,08,14,12,20,775.00
2022,08,14,12,21,775.00
2022,08,14,12,22,776.30
2022,08,14,12,23,778.40
2022,08,14,12,24,779.00
2022,08,14,12,25,779.00
2022,08,14,12,26,779.20
2022,08,14,12,27,780.00
2022,08,14,12,28,780.70
2022,08,14,12,29,782.00
2022,08,14,12,30,784.20
2022,08,14,12,31,784.60
2022,08,14,12,32,787.20
2022,08,14,12,33,788.90
2022,08,14,12,34,788.30
2022,08,14,12,35,791.80
2022,08,14,12,36,795.00
2022,08,14,12,37,795.40
2022,08,14,12,38,796.90
2022,08,14,12,39,800.30
2022,08,14,12,40,805.50
2022,08,14,12,41,812.60
2022,08,14,12,42,822.90
2022,08,14,12,43,832.40
2022,08,14,12,44,849.20
2022,08,14,12,45,863.70
2022,08,14,12,46,862.80
2022,08,14,12,47,897.10
2022,08,14,12,48,926.00
2022,08,14,12,49,868.20
2022,08,14,12,50,927.70
2022,08,14,12,51,906.70
2022,08,14,12,52,905.00
2022,08,14,12,53,872.10
2022,08,14,12,54,780.00
2022,08,14,12,55,780.00
2022,08,14,12,56,728.50
2022,08,14,12,57,691.00
2022,08,14,12,58,691.00
2022,08,14,12,59,691.00
2022,08,14,13,00,806.90
2022,08,14,13,01,839.80
2022,08,14,13,02,826.50
2022,08,14,13,03,820.50
2022,08,14,13,04,815.50
2022,08,14,13,05,811.50
2022,08,14,13,06,809.30
2022,08,14,13,07,807.40
2022,08,14,13,08,805.10
2022,08,14,13,09,805.00
2022,08,14,13,10,804.50
2022,08,14,13,11,803.00
2022,08,14,13,12,803.00
2022,08,14,13,13,804.20
2022,08,14,13,14,803.70
2022,08,14,13,15,803.00
2022,08,14,13,16,803.00
2022,08,14,13,17,802.90
2022,08,14,13,18,802.20
2022,08,14,13,19,803.00
2022,08,14,13,20,802.60
2022,08,14,13,21,802.50
2022,08,14,13,22,803.00
2022,08,14,13,23,802.30
2022,08,14,13,24,802.00
2022,08,14,13,25,802.90
2022,08,14,13,26,803.00
2022,08,14,13,27,802.80
2022,08,14,13,28,802.00
2022,08,14,13,29,802.00
2022,08,14,13,30,802.00
2022,08,14,13,31,802.00
2022,08,14,13,32,802.00
2022,08,14,13,33,802.00
2022,08,14,13,34,802.00
2022,08,14,13,35,802.00
2022,08,14,13,36,801.50
2022,08,14,13,37,800.70
2022,08,14,13,38,801.00
2022,08,14,13,39,800.00
2022,08,14,13,40,800.00
2022,08,14,13,41,800.00
2022,08,14,13,42,798.20
2022,08,14,13,43,798.00
2022,08,14,13,44,798.00
2022,08,14,13,45,798.00
2022,08,14,13,46,797.30
2022,08,14,13,47,797.00
2022,08,14,13,48,796.10
2022,08,14,13,49,797.20
2022,08,14,13,50,796.30
2022,08,14,13,51,795.20
2022,08,14,13,52,795.80
2022,08,14,13,53,795.00
2022,08,14,13,54,795.00
2022,08,14,13,55,794.10
2022,08,14,13,56,793.00
2022,08,14,13,57,793.00
2022,08,14,13,58,791.40
2022,08,14,13,59,792.70
2022,08,14,14,00,791.10
2022,08,14,14,01,791.00
2022,08,14,14,02,790.40
2022,08,14,14,03,789.00
2022,08,14,14,04,789.00
2022,08,14,14,05,788.40
2022,08,14,14,06,788.00
2022,08,14,14,07,788.00
2022,08,14,14,08,786.20
2022,08,14,14,09,785.80
2022,08,14,14,10,784.40
2022,08,14,14,11,785.40
2022,08,14,14,12,783.20
2022,08,14,14,13,782.00
2022,08,14,14,14,783.20
2022,08,14,14,15,781.00
2022,08,14,14,16,779.20
2022,08,14,14,17,779.00
2022,08,14,14,18,779.00
2022,08,14,14,19,779.00
2022,08,14,14,20,778.20
2022,08,14,14,21,777.00
2022,08,14,14,22,774.80
2022,08,14,14,23,774.40
2022,08,14,14,24,775.00
2022,08,14,14,25,773.10
2022,08,14,14,26,772.00
2022,08,14,14,27,772.00
2022,08,14,14,28,771.40
2022,08,14,14,29,770.00
2022,08,14,14,30,768.90
2022,08,14,14,31,768.00
2022,08,14,14,32,765.80
2022,08,14,14,33,765.00
2022,08,14,14,34,765.00
2022,08,14,14,35,764.70
2022,08,14,14,36,763.00
2022,08,14,14,37,762.30
2022,08,14,14,38,761.00
2022,08,14,14,39,759.90
2022,08,14,14,40,759.00
2022,08,14,14,41,758.20
2022,08,14,14,42,758.00
2022,08,14,14,43,756.10
2022,08,14,14,44,755.60
2022,08,14,14,45,754.00
2022,08,14,14,46,753.10
2022,08,14,14,47,751.50
2022,08,14,14,48,749.70
2022,08,14,14,49,749.00
2022,08,14,14,50,747.30
2022,08,14,14,51,745.20
2022,08,14,14,52,744.20
2022,08,14,14,53,744.20
2022,08,14,14,54,742.00
2022,08,14,14,55,742.00
2022,08,14,14,56,740.90
2022,08,14,14,57,738.70
2022,08,14,14,58,738.00
2022,08,14,14,59,737.10
2022,08,14,15,00,735.00
2022,08,14,15,01,732.70
2022,08,14,15,02,730.40
2022,08,14,15,03,729.00
2022,08,14,15,04,729.00
2022,08,14,15,05,728.40
2022,08,14,15,06,728.00
2022,08,14,15,07,728.00
2022,08,14,15,08,726.30
2022,08,14,15,09,725.80
2022,08,14,15,10,724.00
2022,08,14,15,11,723.40
2022,08,14,15,12,722.00
2022,08,14,15,13,721.50
2022,08,14,15,14,718.60
2022,08,14,15,15,715.60
2022,08,14,15,16,714.20
2022,08,14,15,17,711.80
2022,08,14,15,18,706.10
2022,08,14,15,19,696.50
2022,08,14,15,20,692.80
2022,08,14,15,21,708.00
2022,08,14,15,22,706.30
2022,08,14,15,23,705.00
2022,08,14,15,24,705.00
2022,08,14,15,25,701.60
2022,08,14,15,26,699.60
2022,08,14,15,27,696.00
2022,08,14,15,28,695.50
2022,08,14,15,29,693.60
2022,08,14,15,30,692.00
2022,08,14,15,31,691.00
2022,08,14,15,32,688.20
2022,08,14,15,33,687.00
2022,08,14,15,34,686.10
2022,08,14,15,35,685.70
2022,08,14,15,36,683.60
2022,08,14,15,37,682.00
2022,08,14,15,38,678.70
2022,08,14,15,39,678.80
2022,08,14,15,40,682.00
2022,08,14,15,41,680.50
2022,08,14,15,42,680.00
2022,08,14,15,43,678.80
2022,08,14,15,44,651.00
2022,08,14,15,45,630.40
2022,08,14,15,46,640.00
2022,08,14,15,47,598.50
2022,08,14,15,48,599.00
2022,08,14,15,49,576.40
2022,08,14,15,50,546.50
2022,08,14,15,51,540.00
2022,08,14,15,52,595.50
2022,08,14,15,53,687.60
2022,08,14,15,54,722.00
2022,08,14,15,55,715.20
2022,08,14,15,56,658.70
2022,08,14,15,57,613.80
2022,08,14,15,58,651.20
2022,08,14,15,59,640.20
2022,08,14,16,00,633.00
2022,08,14,16,01,664.00
2022,08,14,16,02,667.10
2022,08,14,16,03,658.00
2022,08,14,16,04,652.20
2022,08,14,16,05,644.20
2022,08,14,16,06,637.20
2022,08,14,16,07,632.00
2022,08,14,16,08,626.50
2022,08,14,16,09,621.80
2022,08,14,16,10,618.20
2022,08,14,16,11,614.10
2022,08,14,16,12,611.30
2022,08,14,16,13,608.00
2022,08,14,16,14,605.40
2022,08,14,16,15,603.60
2022,08,14,16,16,601.40
2022,08,14,16,17,599.00
2022,08,14,16,18,595.70
2022,08,14,16,19,593.50
2022,08,14,16,20,591.10
2022,08,14,16,21,589.00
2022,08,14,16,22,586.90
2022,08,14,16,23,585.00
2022,08,14,16,24,584.30
2022,08,14,16,25,582.30
2022,08,14,16,26,578.20
2022,08,14,16,27,576.70
2022,08,14,16,28,574.40
2022,08,14,16,29,572.30
2022,08,14,16,30,569.70
2022,08,14,16,31,568.00
2022,08,14,16,32,565.30
2022,08,14,16,33,563.20
2022,08,14,16,34,561.20
2022,08,14,16,35,558.80
2022,08,14,16,36,556.60
2022,08,14,16,37,554.00
2022,08,14,16,38,551.20
2022,08,14,16,39,548.90
2022,08,14,16,40,547.40
2022,08,14,16,41,544.10
2022,08,14,16,42,541.40
2022,08,14,16,43,540.00
2022,08,14,16,44,537.40
2022,08,14,16,45,533.80
2022,08,14,16,46,533.00
2022,08,14,16,47,532.10
2022,08,14,16,48,528.90
2022,08,14,16,49,525.00
2022,08,14,16,50,524.00
2022,08,14,16,51,522.20
2022,08,14,16,52,519.00
2022,08,14,16,53,516.60
2022,08,14,16,54,514.40
2022,08,14,16,55,512.60
2022,08,14,16,56,511.00
2022,08,14,16,57,507.50
2022,08,14,16,58,504.60
2022,08,14,16,59,503.20
2022,08,14,17,00,501.10
2022,08,14,17,01,496.90
2022,08,14,17,02,495.50
2022,08,14,17,03,493.30
2022,08,14,17,04,491.10
2022,08,14,17,05,489.50
2022,08,14,17,06,486.50
2022,08,14,17,07,483.50
2022,08,14,17,08,482.10
2022,08,14,17,09,479.90